Regional Weather Roundup
Issued by NWS Wakefield, VA

Home | Current Version | Previous Version | Graphics & Text | Print | Product List | Glossary On
Versions: 1 2 3 4 5 6 7 8 9 10 11 12 13 14 15 16 17 18 19 20 21 22 23 24 25 26 27 28 29 30 31 32 33 34 35 36 37 38 39 40 41 42 43 44 45 46 47 48 49 50
000
ASUS41 KAKQ 281515
RWRAKQ

REGIONAL WEATHER ROUNDUP
NATIONAL WEATHER SERVICE WAKEFIELD VA
1100 AM EDT TUE JUL 28 2015

Note: "fair" indicates few or no clouds below 12,000 feet with no
significant weather and/or obstructions to visibility. * = Denotes
station may not report precipitation (e.g., rain,snow,etc.),
thunder or fog.

VAZ042-051-052>054-056-281600-
NORTHERN VIRGINIA

CITY           SKY/WX    TMP DP  RH WIND       PRES   REMARKS
WASH NATIONAL  MOSUNNY   87  73  62 NE6       30.02S
DULLES         MOSUNNY   84  72  67 NE6       30.02F
FORT BELVOIR   MOSUNNY   84  73  69 VRB2      30.01F
QUANTICO       MOSUNNY   82  72  71 E6        30.01F
FREDERICKSBRG* SUNNY     85  76  75 NE3       30.00S HX  95
STAFFORD*      SUNNY     85  71  64 E5        30.05S
WARRENTON      MOSUNNY   83  76  79 CALM      30.02S
CULPEPER*      CLOUDY    77  73  90 N3        30.03S
MANASSAS*      PTSUNNY   84  73  70 CALM      30.01F
LEESBURG*      CLOUDY    82  77  83 CALM      30.04S
WINCHESTER     CLOUDY    81  73  78 E3        30.05S
FRONT ROYAL*   CLOUDY    75  72  88 CALM      30.04S
LURAY*         FAIR      82  73  74 E3        30.04F
$$

VAZ048-049-060>072-079>083-281600-
CENTRAL AND SOUTH CENTRAL VIRGINIA

CITY           SKY/WX    TMP DP  RH WIND       PRES   REMARKS
RICHMOND       MOSUNNY   84  73  69 CALM      30.01S
CHESTERFIELD*  PTSUNNY   88  66  48 CALM      30.02S
PETERSBURG*    MOSUNNY   85  78  80 CALM      30.02S HX  97
HANOVER        CLOUDY    83  74  74 N3        30.03S
TAPPAHANNOCK*  MOSUNNY   85  71  61 CALM      30.02S
QUINTON*       FAIR      82  75  79 CALM      30.01S
CHARLOTTSVILLE CLOUDY    78  72  81 NE5       30.03S
GORDONSVILLE*  PTSUNNY   81  73  78 NE3       30.02S
ORANGE*        PTSUNNY   81  73  78 NW5       30.04S
LOUISA*        CLOUDY    81  73  78 N5        30.02S
BUMPASS*       PTSUNNY   79  74  82 CALM      30.02S
FARMVILLE*     PTSUNNY   82  73  75 CALM      30.01S
CREWE*         PTSUNNY  N/A N/A N/A CALM      30.01S
FORT PICKETT*  PTSUNNY   83  74  75 SW3       30.02S
CHASE CITY*    PTSUNNY   86  76  71 S3        30.03R HX  95
CLARKSVILLE*   FAIR      84  73  70 CALM      30.02S
SOUTH HILL*    CLOUDY    82  73  75 S6        30.08S
LAWRENCEVILLE* CLOUDY    84  73  70 S6        30.02S
EMPORIA*       CLOUDY    82  73  74 SE6       30.04R
$$

VAZ088>098-281600-
SOUTHEAST VIRGINIA

CITY           SKY/WX    TMP DP  RH WIND       PRES   REMARKS
NORFOLK        CLOUDY    84  71  65 SW6       30.02R
VIRGINIA BEACH PTSUNNY   86  70  58 SE9       30.02R
NORFOLK NAVAL  CLOUDY    84  68  58 SE5       30.04R
WEST POINT*    MOSUNNY   85  72  63 SW3       30.03R
SALUDA*        FAIR      83  73  70 CALM      30.01S
NEWPORT NEWS   CLOUDY    83  72  69 SW8       30.02S
LANGLEY AFB    PTSUNNY   83  73  71 S6        30.02S
FORT EUSTIS    PTSUNNY   82  80  96 S6        30.01R
WILLIAMSBURG*  SUNNY     86  75  70 S6        30.03R HX  95
HR EXEC AP*    FAIR      84  72  65 S5        30.04S
FRANKLIN*      MOSUNNY   82  71  68 S5        30.03S
WAKEFIELD      PTSUNNY   85  70  60 S5        30.02S
$$

VAZ020-022-025-037-045-281600-
WEST CENTRAL AND SOUTHWEST VIRGINIA

CITY           SKY/WX    TMP DP  RH WIND       PRES   REMARKS
STAUNTON*      PTSUNNY   80  71  74 CALM      30.08S
WAYNESBORO*    CLOUDY    73  71  92 CALM      30.08S
HOT SPRINGS VA CLOUDY    73  70  89 CALM      30.17S
LYNCHBURG      CLOUDY    78  73  84 NW3       30.05S
DANVILLE       MOSUNNY   83  75  77 CALM      30.03S
SOUTH BOSTON*  FAIR      83  74  73 CALM      30.02S
MARTINSVILLE   PTSUNNY   84  72  67 CALM      30.06S
ROANOKE        CLOUDY    80  71  74 CALM      30.07S
BLACKSBURG     CLOUDY    75  72  89 CALM      30.13S
DUBLIN*          N/A     78  73  85 CALM      30.11F
MARION*        SUNNY     80  71  73 SW5       30.14F
HILLSVILLE*    PTSUNNY   78  70  75 W3        30.12S
RICHLANDS*     PTSUNNY   77  72  83 CALM      30.12S
WISE*          NOT AVBL
ABINGDON*      MOSUNNY   81  71  70 CALM      30.09F
$$

MDZ021>025-VAZ099-100-281600-
SOUTHERN MARYLAND AND THE DELMARVA PENINSULA

CITY           SKY/WX    TMP DP  RH WIND       PRES   REMARKS
PATUXENT RIVER MOSUNNY   82  74  76 E6        30.01S
BAY BRIDGE APT   N/A     81  72  74 NW5       30.01F
LEONARDTOWN    PTSUNNY   81  72  74 CALM      30.02F
DOVER          PTSUNNY   83  76  81 E6        30.00S
GEORGETOWN     PTSUNNY   84  72  67 NW5       30.02S
EASTON         MOSUNNY   82  73  74 CALM      30.05S
CAMBRIDGE      MOSUNNY   82  70  65 CALM      30.01S
SALISBURY      MOSUNNY   85  72  65 CALM      30.01S
OCEAN CITY     PTSUNNY   81  73  76 S6        30.01S
WALLOPS ISLAND PTSUNNY   82  76  81 S9        30.02S
ACCOMACK*      PTSUNNY  N/A N/A N/A W5          N/A
$$

NCZ012>017-030>032-281600-
NORTH CENTRAL AND EASTERN NORTH CAROLINA

CITY           SKY/WX    TMP DP  RH WIND       PRES   REMARKS
ROANOKE RAPIDS FAIR      82  70  65 S6        30.03S
RALEIGH        PTSUNNY   85  71  63 SW5       30.04R
ELIZABETH CITY MOSUNNY   84  71  65 SE7       30.03S
AHOSKIE*       MOSUNNY   82  71  67 S3        30.03S
EDENTON*         N/A     82  70  68 SE6       30.04R
CURRITUCK*     PTSUNNY   83  68  60 S3        30.04S
KILL DEVIL HLS SUNNY     87  68  53 SE6       30.03S
MANTEO         SUNNY     83  69  60 SE5       30.04S
CAPE HATTERAS  SUNNY     86  70  58 SE8       30.04R
TARBORO*         N/A     85  71  61 SE6       30.04R
GOLDSBORO      SUNNY     85  72  66 VRB6      30.01S
WASHINGTON     SUNNY     83  71  66 SE7       30.04R
GREENVILLE     SUNNY     84  72  65 CALM      30.05S
NEW BERN       SUNNY     85  69  58 E8        30.04S
WILMINGTON     MOSUNNY   84  71  65 E14       30.02R
$$

VAZ048-281600-
ELSEWHERE

CITY           SKY/WX    TMP DP  RH WIND       PRES   REMARKS
HARRISBURG PA  MOSUNNY   80  73  79 S3        30.03S HAZE
BALTIMORE      MOSUNNY   83  71  67 CALM      30.01S
ANNAPOLIS      SUNNY     81  72  74 SE5       30.01S
ANDREWS AFB    MOSUNNY   82  73  74 E7        30.02S
PHILADELPHIA   MOSUNNY   86  70  58 VRB3      30.01F
HENDERSON NC   SUNNY     83  69  63 CALM      30.04S
GREENSBORO     MOSUNNY   83  71  67 SW6       30.03F
ROCKY MOUNT    PTSUNNY   86  71  60 S6        30.04R
$$

VAZ100-281600-
MARINE

STATION/POSITION TIME  TEMP    WIND        PRES    WAVE   SWELL
                       AIR SEA DIR/SP/G            HT/PER HT/PER
                 (UTC) (F)     (DEG/KT/KT) (MB)    (FT/S) (FT/S)
BRANDYWINE LGT   1400   77 76  230/  2/  2 1016.7F
CAPE MAY NJ      1400   76 79  260/  5/  5 1016.1F
LEWES DE         1400   77 73   10/  2/  2 1016.4F
15NM E FENWICK I 1450   78 78  260/  2/  4 1016.6F   2/11   2/11
OCEAN-CITY-INLET 1400   79 74  190/  5/  7 1015.6F
WACHAPREAGUE VA  1400   82 81  190/  6/  8 1016.4F
GOOSES REEF MD   1500   81 83     CALM     1017.4S
COVE POINT MD    1400   78     150/  4/  5 1017.0S
SOLOMONS ISLAND  1400      82                N/A
BISHOPS HEAD MD  1400   79 80  250/  7/  7 1015.6R
POTOMAC MD       1500   82 83   CALM  /  2 1015.2S   0
CAMBRIDGE MD     1400   80 83   30/  3/  4 1015.4F
LEWISETTA VA     1400   83 81     CALM     1015.8F
RAPPAHANNOCK LGT 1400          190/  7/  8 1016.9F
STINGRAY PT      1400   81 82  210/  4/  6 1016.5F   1
YORK RVR RNG VA  1400   79     200/  5/  6 1015.8F
YORKTOWN VA      1400   79 82  180/  4/  5 1016.0F
JAMESTOWN VA     1500   80 85  110/  6/  8   N/A
DOMINION TERM VA 1400   79     190/  1/  2 1016.3F
KIPTOPEKE VA     1400      85  200/  5/  6   N/A
CHES BAY BRIDGE  1400   81 81  140/  4/  6 1016.0F
CAPE HENRY VA    1400   81     100/  8/  9   N/A
CHESAPEAKE LGHT  1400   80     180/  4/  5 1017.4S
WILLOUBY STN VA  1400   80     240/  7/  8 1017.3S
CAPE HENRY BUOY  1428      80                N/A     2/11   2/11
1ST LANDING BUOY 1500      81              1016.5R   1/ 5
CAPE CHARLES BUO 1426      80                N/A     2/11   2/11
OFFSHORE WE BUOY 1411      81                N/A     2/11   2/11
64NM E OF VA BCH 1450   80 80  150/  6/  6 1016.8R   2/11   2/11
DUCK PIER NC     1400   80 70  130/  8/  8 1016.1R
44100 DUCK FRF   1424      80                N/A     2/11
44056 DUCK FRF   1411      80                N/A     2/11   2/11
OREGON INLET NC  1400   81 81   80/  7/ 10 1016.9R
HATTERAS NC      1400   83 82  100/  5/ 10 1016.5R
CAPE LOOKOUT NC  1500   81      90/ 13/ 15 1016.5R
$$


USA.gov is the U.S. government's official web portal to all federal, state and local government web resources and services.